Location: Mountain View
(37.3861°N, 122.0839°W)
Time: 15:21:05
(UTC-07:00)

Amateur Radio Satellites - All Passes

Search period start: 18 October 2017 14:51
Search period end: 19 October 2017 14:51
Location: Mountain View, 37.3861°N, 122.0839°W

Satellite Date Start Highest point End Downlink Frequencies (MHz)
Time Altitude Azimuth
50 SAT 18 Oct 15:03:14 15:06:16 34° 287° (WNW) 15:09:17 437.505
AO-7 18 Oct 15:06:41 15:14:38 53° 66° (ENE) 15:22:36 .
DX 1 18 Oct 15:13:49 15:18:02 49° 287° (WNW) 15:22:15 434.975-435.025
SO-50 18 Oct 15:25:21 15:27:46 14° 44° (NE) 15:30:11 436.795
BEESAT 2 18 Oct 15:26:44 15:28:20 12° 316° (NW) 15:29:56 435.950
AO-85 18 Oct 15:36:34 15:38:31 13° 315° (NW) 15:40:28 145.980
UKube-1 18 Oct 15:42:30 15:46:29 37° 289° (WNW) 15:50:27 .
MOZHAYETS 4 18 Oct 15:49:56 15:54:03 32° 97° (E) 15:58:08
ITUPSAT 1 18 Oct 15:59:15 16:03:39 35° 98° (E) 16:08:00 437.325
ISS 18 Oct 16:06:42 16:07:29 11° 18° (NNE) 16:08:15 437.550
BEESAT 18 Oct 16:15:59 16:20:41 55° 101° (E) 16:25:20 436.000
ITAMSAT 1 18 Oct 16:24:02 16:29:06 56° 259° (W) 16:34:13 435.822/435.867
DOVE 4 18 Oct 16:25:43 16:27:44 13° 65° (ENE) 16:29:47 437.250
AO-7 18 Oct 17:00:26 17:07:36 32° 262° (W) 17:14:49 .
SO-50 18 Oct 17:04:07 17:08:45 77° 240° (WSW) 17:13:25 436.795
nSIGHT-1 18 Oct 17:13:56 17:16:47 28° 32° (NNE) 17:19:37 .
XW-2F 18 Oct 17:26:54 17:28:25 12° 67° (ENE) 17:29:56 145.980 - 146.000
LilacSat-2 18 Oct 17:27:05 17:29:13 14° 68° (ENE) 17:31:20 437.200
MOZHAYETS 4 18 Oct 17:27:30 17:30:59 22° 292° (WNW) 17:34:27
KKS-1 18 Oct 17:32:08 17:35:44 23° 96° (E) 17:39:19 437.445
CUBESAT XI-V 18 Oct 17:32:18 17:36:55 89° 274° (W) 17:41:30 437.345
PCSat 18 Oct 17:35:32 17:40:00 25° 52° (NE) 17:44:26 145.827
XW-2D 18 Oct 17:36:26 17:39:03 18° 69° (ENE) 17:41:39 145.860 - 145.880
ITUPSAT 1 18 Oct 17:37:33 17:41:14 22° 293° (WNW) 17:44:53 437.325
ISS 18 Oct 17:41:28 17:44:38 44° 36° (NE) 17:47:47 437.550
NUDT-PHONESAT 18 Oct 17:45:28 17:47:39 15° 68° (ENE) 17:49:50 437.300
XW-2B 18 Oct 17:49:15 17:52:21 24° 71° (ENE) 17:55:28 145.730 - 145.750
BEESAT 18 Oct 17:55:17 17:57:57 15° 296° (WNW) 18:00:36 436.000
DOVE 4 18 Oct 18:01:01 18:04:58 45° 261° (W) 18:09:05 437.250
STARS 18 Oct 18:10:34 18:14:12 24° 96° (E) 18:17:48 437.465
XW-2C 18 Oct 18:11:43 18:15:23 48° 75° (ENE) 18:19:04 145.795 - 145.815
CUTE-I 18 Oct 18:18:36 18:23:44 54° 72° (ENE) 18:28:55 437.470
CUTE 1.7 + AOD 2 18 Oct 18:19:15 18:21:00 12° 66° (ENE) 18:22:45 437.475
nSIGHT-1 18 Oct 18:50:16 18:52:59 25° 228° (SW) 18:55:42 .
HO-68 18 Oct 18:55:28 19:02:21 52° 68° (ENE) 19:09:15 435.675
CUBEBUG 2 18 Oct 18:57:18 19:00:49 22° 68° (ENE) 19:04:23 437.445
XW-2F 18 Oct 18:58:32 19:02:07 41° 261° (W) 19:05:43 145.980 - 146.000
LilacSat-2 18 Oct 18:59:38 19:03:10 34° 262° (W) 19:06:41 437.200
KAITUO 1B 18 Oct 19:00:03 19:03:42 51° 260° (W) 19:07:21 145.475/437.950
KKS-1 18 Oct 19:08:23 19:12:13 29° 291° (WNW) 19:16:04 437.445
XW-2D 18 Oct 19:09:45 19:12:59 27° 263° (W) 19:16:16 145.860 - 145.880
STRAND 1 18 Oct 19:15:51 19:17:10 11° 90° (E) 19:18:29 437.568
NUDT-PHONESAT 18 Oct 19:17:53 19:21:13 31° 263° (W) 19:24:33 437.300
PCSat 18 Oct 19:18:26 19:23:33 44° 249° (WSW) 19:28:38 145.827
ISS 18 Oct 19:18:46 19:20:50 16° 231° (SW) 19:22:54 437.550
YUBILEINY 18 Oct 19:19:29 19:21:48 11° 60° (ENE) 19:24:08 435.215
ZACube-1 18 Oct 19:23:20 19:25:10 12° 64° (ENE) 19:27:01 437.345
XW-2B 18 Oct 19:23:40 19:26:27 19° 265° (W) 19:29:15 145.730 - 145.750
UWE-3 18 Oct 19:38:44 19:42:52 34° 71° (ENE) 19:47:04 435.000/436.395/437.385
STARS 18 Oct 19:46:42 19:50:27 27° 291° (WNW) 19:54:11 437.465
XW-2A 18 Oct 19:47:41 19:50:56 42° 75° (ENE) 19:54:12 145.665 - 145.685
CUTE 1.7 + AOD 2 18 Oct 19:52:14 19:56:21 52° 261° (W) 20:00:29 437.475
CUTE-I 18 Oct 20:00:43 20:04:04 17° 267° (W) 20:07:27 437.470
Oscar 11 18 Oct 20:02:16 20:05:17 19° 68° (ENE) 20:08:17 .
SEEDS 18 Oct 20:03:02 20:07:11 65° 259° (W) 20:11:20 437.485
AAUSAT CUBESAT 2 18 Oct 20:32:43 20:36:48 69° 259° (W) 20:40:53 437.432
CUBEBUG 2 18 Oct 20:32:56 20:37:08 35° 263° (W) 20:41:29 437.445
AO-73 18 Oct 20:35:26 20:39:57 67° 76° (ENE) 20:44:30 145.935
HO-68 18 Oct 20:44:24 20:50:17 27° 265° (W) 20:56:13 435.675
DELFI C3 18 Oct 20:46:54 20:47:14 10° 65° (ENE) 20:47:34 145.870
BEESAT 3 18 Oct 20:50:53 20:52:38 12° 45° (NE) 20:54:21 437.485
STRAND 1 18 Oct 20:51:41 20:56:51 76° 285° (WNW) 21:01:59 437.568
ZACube-1 18 Oct 20:56:21 21:00:52 63° 260° (W) 21:05:26 437.345
YUBILEINY 18 Oct 21:11:39 21:20:25 67° 81° (E) 21:29:11 435.215
UWE-3 18 Oct 21:15:48 21:19:20 21° 266° (W) 21:22:55 435.000/436.395/437.385
O/OREOS (USA 219) 18 Oct 21:17:05 21:21:34 64° 108° (ESE) 21:26:07 437.305
Oscar 11 18 Oct 21:37:10 21:41:08 35° 263° (W) 21:45:06 .
FO-29 18 Oct 21:39:07 21:45:55 54° 100° (E) 21:53:21 435.910
EO-88 18 Oct 21:54:38 21:57:58 34° 73° (ENE) 22:01:18 145.990 - 145.960
Max Valier Satellite 18 Oct 21:59:55 22:03:36 60° 76° (ENE) 22:07:17 145.860
BEESAT 2 18 Oct 22:06:03 22:09:16 22° 50° (NE) 22:12:26 435.950
UNISAT 6 18 Oct 22:06:50 22:10:16 20° 94° (E) 22:13:38 437.425
AO-73 18 Oct 22:15:56 22:16:34 10° 270° (W) 22:17:11 145.935
DELFI C3 18 Oct 22:17:39 22:21:28 53° 260° (W) 22:25:19 145.870
TIGRISAT 18 Oct 22:21:46 22:25:42 27° 95° (E) 22:29:31 435.000
AO-85 18 Oct 22:26:12 22:30:13 30° 53° (NE) 22:34:30 145.980
BEESAT 3 18 Oct 22:26:40 22:30:34 62° 243° (WSW) 22:34:23 437.485
LO-87 18 Oct 22:50:34 22:53:15 20° 70° (ENE) 22:55:57 145.935 - 145.965
O/OREOS (USA 219) 18 Oct 22:59:25 23:01:26 13° 305° (NW) 23:03:28 437.305
RS-15 18 Oct 23:09:11 23:14:31 14° 95° (E) 23:19:51 29.354- 29.394
YUBILEINY 18 Oct 23:09:52 23:16:23 24° 278° (W) 23:22:56 435.215
ESTCUBE 1 18 Oct 23:22:11 23:26:21 39° 72° (ENE) 23:30:31 437.505/2401.250
FO-29 18 Oct 23:24:55 23:30:36 29° 294° (WNW) 23:36:44 435.910
EO-88 18 Oct 23:30:09 23:31:43 12° 267° (W) 23:33:18 145.990 - 145.960
UNISAT 6 18 Oct 23:42:52 23:47:01 34° 289° (WNW) 23:51:05 437.425
BEESAT 2 18 Oct 23:43:28 23:47:00 29° 247° (WSW) 23:50:28 435.950
PRISM 18 Oct 23:43:33 23:47:41 75° 283° (WNW) 23:51:48 437.425
QB50P2 18 Oct 23:51:01 23:52:21 11° 91° (E) 23:53:40 145.880/145.840
TIGRISAT 18 Oct 23:58:27 00:02:15 26° 291° (WNW) 00:05:58 435.000
AIST 2D 19 Oct 00:03:00 00:06:18 41° 99° (E) 00:09:35 435.315
AO-85 19 Oct 00:06:29 00:10:36 30° 246° (WSW) 00:14:56 145.980
DUCHIFAT 1 19 Oct 00:07:26 00:09:06 12° 92° (E) 00:10:45 145.980
SPROUT 19 Oct 00:23:32 00:27:34 43° 73° (ENE) 00:31:38 437.525
LO-87 19 Oct 00:23:47 00:26:32 21° 265° (W) 00:29:18 145.935 - 145.965
VELOX 1 19 Oct 00:55:20 00:59:40 70° 76° (ENE) 01:04:03 145.980
EO-79 19 Oct 00:59:45 01:04:01 70° 102° (ESE) 01:08:13 145.935-145.965
ESTCUBE 1 19 Oct 01:00:18 01:03:15 17° 266° (W) 01:06:13 437.505/2401.250
UKube-1 19 Oct 01:01:26 01:02:59 12° 64° (ENE) 01:04:31 .
POLYITAN 1 19 Oct 01:03:59 01:08:17 78° 103° (ESE) 01:12:30 437.675
RS-15 19 Oct 01:12:35 01:24:41 71° 114° (ESE) 01:36:54 29.354- 29.394
QB50P2 19 Oct 01:24:15 01:28:25 53° 286° (WNW) 01:32:32 145.880/145.840
NANOSAT C BR1 19 Oct 01:29:10 01:33:21 58° 286° (WNW) 01:37:29 145.865
50 SAT 19 Oct 01:29:22 01:32:27 42° 74° (ENE) 01:35:34 437.505
DUCHIFAT 1 19 Oct 01:40:55 01:45:00 49° 287° (WNW) 01:49:03 145.980
BUGSAT 1 19 Oct 01:54:58 01:59:08 55° 100° (E) 02:03:13 437.445
SPROUT 19 Oct 02:01:22 02:03:38 14° 268° (W) 02:05:55 437.525
DX 1 19 Oct 02:06:46 02:11:04 76° 259° (W) 02:15:25 434.975-435.025
Oscar 19 19 Oct 02:30:17 02:35:22 60° 101° (E) 02:40:24 437.125/150
UKube-1 19 Oct 02:34:14 02:38:27 58° 259° (WSW) 02:42:42 .
NO-84 19 Oct 02:42:31 02:45:04 15° 122° (ESE) 02:47:37 435.350 FM
Gurwin Techsat 1B 19 Oct 02:49:06 02:54:23 63° 101° (ESE) 02:59:39 435.225
MOZHAYETS 4 19 Oct 02:49:53 02:53:40 26° 69° (ENE) 02:57:29
M-CUBED/EXP-1 PRIME 19 Oct 03:00:56 03:04:30 78° 288° (WNW) 03:08:19 437.505
ITUPSAT 1 19 Oct 03:03:54 03:08:12 33° 70° (ENE) 03:12:30 437.325
AO-7 19 Oct 03:12:20 03:17:26 17° 92° (E) 03:22:30 .
BEESAT 19 Oct 03:20:06 03:24:43 50° 73° (ENE) 03:29:21 436.000
RS-15 19 Oct 03:26:58 03:38:08 38° 317° (NW) 03:49:20 29.354- 29.394
BUGSAT 1 19 Oct 03:32:25 03:33:57 12° 296° (WNW) 03:35:28 437.445
Oscar 19 19 Oct 04:11:13 04:14:07 15° 297° (WNW) 04:17:03 437.125/150
NO-84 19 Oct 04:17:48 04:22:05 65° 317° (NW) 04:26:18 435.350 FM
MOZHAYETS 4 19 Oct 04:26:42 04:30:41 28° 264° (W) 04:34:41
KKS-1 19 Oct 04:28:47 04:31:44 18° 66° (ENE) 04:34:41 437.445
Gurwin Techsat 1B 19 Oct 04:30:39 04:33:46 16° 297° (WNW) 04:36:52 435.225
CUBESAT XI-V 19 Oct 04:33:07 04:37:44 69° 75° (ENE) 04:42:20 437.345
ITAMSAT 1 19 Oct 04:38:44 04:43:56 61° 101° (ESE) 04:49:05 435.822/435.867
ITUPSAT 1 19 Oct 04:42:14 04:46:02 23° 265° (W) 04:49:50 437.325
BEESAT 19 Oct 05:00:01 05:02:44 15° 267° (W) 05:05:28 436.000
AO-7 19 Oct 05:02:41 05:11:01 86° 289° (WNW) 05:19:21 .
STARS 19 Oct 05:05:45 05:08:39 18° 66° (ENE) 05:11:35 437.465
RS-15 19 Oct 05:48:19 05:55:45 17° 350° (N) 06:03:04 29.354- 29.394
NO-84 19 Oct 05:57:52 06:00:11 14° 334° (NNW) 06:02:26 435.350 FM
DOVE 4 19 Oct 06:00:25 06:05:19 54° 100° (E) 06:10:25 437.250
KKS-1 19 Oct 06:03:49 06:07:57 39° 261° (W) 06:12:07 437.445
ITAMSAT 1 19 Oct 06:19:45 06:22:50 16° 297° (WNW) 06:25:56 435.822/435.867
STRAND 1 19 Oct 06:29:14 06:31:54 14° 62° (ENE) 06:34:35 437.568
XW-2F 19 Oct 06:32:50 06:35:41 20° 95° (E) 06:38:30 145.980 - 146.000
KAITUO 1B 19 Oct 06:33:54 06:36:14 16° 94° (E) 06:38:34 145.475/437.950
LilacSat-2 19 Oct 06:34:46 06:37:56 25° 96° (E) 06:41:05 437.200
CUTE-I 19 Oct 06:38:08 06:42:31 25° 95° (E) 06:46:54 437.470
STARS 19 Oct 06:40:35 06:44:40 38° 261° (W) 06:48:47 437.465
XW-2D 19 Oct 06:43:39 06:47:02 31° 97° (E) 06:50:23 145.860 - 145.880
NUDT-PHONESAT 19 Oct 06:49:51 06:52:54 24° 96° (E) 06:55:54 437.300
XW-2B 19 Oct 06:56:53 07:00:29 45° 99° (E) 07:04:04 145.730 - 145.750
AO-7 19 Oct 06:57:26 07:02:36 18° 307° (NW) 07:07:48 .
SO-50 19 Oct 07:16:17 07:20:38 54° 117° (ESE) 07:25:01 436.795
XW-2C 19 Oct 07:19:56 07:23:42 82° 280° (W) 07:27:25 145.795 - 145.815
O/OREOS (USA 219) 19 Oct 07:29:04 07:33:42 87° 74° (ENE) 07:38:16 437.305
JUGNU 19 Oct 07:38:58 07:41:04 12° 173° (S) 07:43:09 437.505
CUTE 1.7 + AOD 2 19 Oct 07:39:09 07:42:50 29° 96° (E) 07:46:29 437.475
DOVE 4 19 Oct 07:39:24 07:42:34 17° 294° (WNW) 07:45:48 437.250
SEEDS 19 Oct 07:49:11 07:52:30 23° 95° (E) 07:55:48 437.485
FO-29 19 Oct 07:53:19 07:55:56 14° 60° (ENE) 07:58:37 435.910
STRAND 1 19 Oct 08:05:24 08:10:28 66° 258° (WSW) 08:15:36 437.568
RS-15 19 Oct 08:05:35 08:14:45 24° 28° (NNE) 08:23:33 29.354- 29.394
XW-2F 19 Oct 08:06:48 08:09:41 22° 290° (WNW) 08:12:33 145.980 - 146.000
KAITUO 1B 19 Oct 08:07:05 08:10:13 27° 288° (WNW) 08:13:20 145.475/437.950
LilacSat-2 19 Oct 08:09:24 08:12:00 18° 291° (WNW) 08:14:36 437.200
HO-68 19 Oct 08:12:33 08:19:44 66° 103° (ESE) 08:26:52 435.675
PCSat 19 Oct 08:15:03 08:19:46 32° 109° (ESE) 08:24:32 145.827
AAUSAT CUBESAT 2 19 Oct 08:17:18 08:20:23 20° 95° (E) 08:23:27 437.432
CUTE-I 19 Oct 08:17:42 08:22:36 37° 291° (WNW) 08:27:29 437.470
XW-2D 19 Oct 08:18:47 08:20:54 15° 292° (WNW) 08:23:02 145.860 - 145.880
YUBILEINY 19 Oct 08:19:22 08:22:56 13° 76° (ENE) 08:26:31 435.215
NUDT-PHONESAT 19 Oct 08:24:04 08:26:33 18° 291° (WNW) 08:29:02 437.300
CUBEBUG 2 19 Oct 08:25:22 08:29:58 59° 100° (E) 08:34:23 437.445
AO-73 19 Oct 08:27:07 08:29:28 14° 92° (E) 08:31:47 145.935
XW-2B 19 Oct 08:33:21 08:34:13 11° 294° (WNW) 08:35:04 145.730 - 145.750
XW-2A 19 Oct 08:43:30 08:46:49 61° 101° (E) 08:50:05 145.665 - 145.685
ZACube-1 19 Oct 08:47:11 08:50:58 28° 96° (E) 08:54:39 437.345
SO-50 19 Oct 08:58:28 09:01:24 17° 314° (NW) 09:04:22 436.795
UNISAT 6 19 Oct 09:04:12 09:06:53 15° 65° (ENE) 09:09:37 437.425
UWE-3 19 Oct 09:06:13 09:10:46 86° 283° (WNW) 09:15:08 435.000/436.395/437.385
CUTE 1.7 + AOD 2 19 Oct 09:15:21 09:18:27 20° 291° (WNW) 09:21:32 437.475
TIGRISAT 19 Oct 09:18:35 09:21:57 20° 67° (ENE) 09:25:20 435.000
SEEDS 19 Oct 09:24:40 09:28:06 25° 290° (WNW) 09:31:31 437.485
Oscar 11 19 Oct 09:25:53 09:30:03 47° 99° (E) 09:34:10 .
JUGNU 19 Oct 09:26:34 09:29:11 13° 183° (S) 09:31:49 437.505
FO-29 19 Oct 09:35:11 09:40:19 66° 259° (WSW) 09:45:46 435.910
nSIGHT-1 19 Oct 09:50:40 09:53:13 22° 131° (SE) 09:55:45 .
AAUSAT CUBESAT 2 19 Oct 09:52:17 09:55:48 28° 289° (WNW) 09:59:18 437.432
DELFI C3 19 Oct 09:56:52 09:59:51 20° 95° (E) 10:02:49 145.870
PCSat 19 Oct 09:58:13 10:03:04 33° 305° (NW) 10:07:58 145.827
SRMSAT 19 Oct 10:00:32 10:01:50 11° 169° (S) 10:03:09 437.500
HO-68 19 Oct 10:01:28 10:06:49 23° 300° (WNW) 10:12:09 435.675
AO-73 19 Oct 10:01:47 10:05:54 42° 287° (WNW) 10:09:54 145.935
CUBEBUG 2 19 Oct 10:03:52 10:05:59 13° 296° (WNW) 10:08:04 437.445
YUBILEINY 19 Oct 10:09:33 10:18:13 81° 94° (E) 10:26:57 435.215
RS-15 19 Oct 10:18:06 10:30:01 69° 56° (NE) 10:41:14 29.354- 29.394
ISS 19 Oct 10:19:50 10:22:54 40° 134° (SE) 10:25:58 437.550
ZACube-1 19 Oct 10:23:40 10:27:04 22° 292° (WNW) 10:30:23 437.345
PRISM 19 Oct 10:30:24 10:34:20 55° 75° (ENE) 10:38:19 437.425
AIST 2D 19 Oct 10:37:01 10:38:16 12° 68° (ENE) 10:39:31 435.315
UNISAT 6 19 Oct 10:38:38 10:43:07 50° 261° (W) 10:47:41 437.425
NO-84 19 Oct 10:53:32 10:56:57 32° 37° (NE) 11:00:07 435.350 FM
TIGRISAT 19 Oct 10:54:02 10:58:18 38° 262° (W) 11:02:41 435.000
EO-88 19 Oct 10:58:11 11:01:46 61° 100° (E) 11:05:20 145.990 - 145.960
Oscar 11 19 Oct 11:03:31 11:05:44 14° 294° (WNW) 11:07:57 .
Max Valier Satellite 19 Oct 11:05:16 11:08:56 71° 284° (WNW) 11:12:34 145.860
nSIGHT-1 19 Oct 11:26:28 11:29:22 31° 326° (NNW) 11:32:17 .
DELFI C3 19 Oct 11:31:15 11:34:32 25° 289° (WNW) 11:37:49 145.870
SRMSAT 19 Oct 11:47:14 11:50:08 14° 180° (S) 11:53:02 437.500
EO-79 19 Oct 11:49:50 11:53:47 38° 72° (ENE) 11:57:45 145.935-145.965
LO-87 19 Oct 11:51:40 11:54:57 31° 98° (E) 11:58:12 145.935 - 145.965
POLYITAN 1 19 Oct 11:54:07 11:58:10 43° 73° (ENE) 12:02:14 437.675
ISS 19 Oct 11:56:52 11:59:28 22° 331° (NNW) 12:02:05 437.550
AIST 2D 19 Oct 12:07:50 12:11:05 35° 262° (W) 12:14:20 435.315
YUBILEINY 19 Oct 12:10:11 12:16:01 19° 294° (WNW) 12:21:55 435.215
BEESAT 3 19 Oct 12:13:58 12:17:33 33° 114° (ESE) 12:21:11 437.485
QB50P2 19 Oct 12:14:04 12:18:20 84° 77° (ENE) 12:22:38 145.880/145.840
NANOSAT C BR1 19 Oct 12:18:29 12:22:42 75° 76° (ENE) 12:26:59 145.865
DUCHIFAT 1 19 Oct 12:29:51 12:34:04 89° 86° (E) 12:38:21 145.980
NO-84 19 Oct 12:31:20 12:34:09 22° 236° (SW) 12:36:46 435.350 FM
RS-15 19 Oct 12:31:48 12:41:24 31° 257° (WSW) 12:50:38 29.354- 29.394
AO-85 19 Oct 12:41:59 12:42:58 11° 108° (ESE) 12:43:57 145.980
BUGSAT 1 19 Oct 12:42:34 12:46:09 29° 70° (ENE) 12:49:48 437.445
VELOX 1 19 Oct 12:48:29 12:51:07 15° 93° (E) 12:53:45 145.980
ESTCUBE 1 19 Oct 12:52:45 12:57:13 71° 285° (WNW) 13:01:40 437.505/2401.250
LO-87 19 Oct 13:26:06 13:28:02 14° 292° (WNW) 13:29:58 145.935 - 145.965
EO-79 19 Oct 13:27:03 13:29:39 16° 267° (W) 13:32:16 145.935-145.965
BEESAT 2 19 Oct 13:31:36 13:35:34 74° 118° (ESE) 13:39:37 435.950
POLYITAN 1 19 Oct 13:31:49 13:34:07 14° 268° (W) 13:36:26 437.675
SRMSAT 19 Oct 13:36:54 13:38:27 11° 190° (S) 13:39:59 437.500
Oscar 19 19 Oct 13:44:55 13:50:04 72° 75° (ENE) 13:55:13 437.125/150
M-CUBED/EXP-1 PRIME 19 Oct 13:45:09 13:48:37 89° 226° (SW) 13:51:56 437.505
SPROUT 19 Oct 13:46:27 13:50:45 72° 284° (WNW) 13:55:00 437.525
BEESAT 3 19 Oct 13:52:06 13:55:08 20° 310° (NW) 13:58:13 437.485
DX 1 19 Oct 13:57:30 14:00:50 21° 95° (E) 14:04:10 434.975-435.025
Gurwin Techsat 1B 19 Oct 14:08:03 14:13:22 82° 75° (ENE) 14:18:42 435.225
AO-7 19 Oct 14:09:24 14:15:29 23° 56° (NE) 14:21:34 .
BUGSAT 1 19 Oct 14:18:22 14:21:29 20° 265° (W) 14:24:39 437.445
AO-85 19 Oct 14:19:04 14:22:50 49° 304° (WNW) 14:26:40 145.980
50 SAT 19 Oct 14:22:05 14:25:20 51° 100° (E) 14:28:33 437.505
UKube-1 19 Oct 14:23:27 14:27:04 25° 96° (E) 14:30:40 .
VELOX 1 19 Oct 14:23:32 14:27:44 42° 288° (WNW) 14:31:55 145.980
